SL-8 DEB, 21186

Orbit data source: Space-Track

SL-8 DEB, 21186 is space debris in LEO originally from a launch on Tue, 12 Feb 1991 UTC launched from the Plesetsk Missile And Space Complex (PKMTR). Debris objects in space refer to the collection of defunct objects orbiting the Earth. Examples of debris include non-operational satellites, rocket bodies, and fragments generated from explosions, collisions, or faulty payload assembly.

Loading next visibility...
Identifier
21186, 1991-009AZ
Orbit
LEO
Country
Flag of CISCIS
Related business
Manufacturer
Unknown
Mission
Spacecraft
Bus & Motor
Unknown
Mass
Unknown
Launch date (UTC)
1991-02-12 (35 years ago)
Launch vehicle
Unknown
Launch site
Plesetsk Missile And Space Complex (PKMTR)
Object type
Payload
Rocket body
Debris
Shape & HBR
Unknown shape, 0.1 m
Radar Cross Section
Medium (>0.1 m² and <1 m²)

Expand to show TLE details & history
Last TLE update: 15 hours ago

TLE from 15 hours ago
0 SL-8 DEB
1 21186U 91009AZ  26171.28941176  .00000133  00000-0  14910-2 0  9996
2 21186  74.1027 105.5610 0148233 101.1308  52.6469 12.13111536562384
Epoch: 2026-06-20T06:56Z
TLE epoch observation values (Epoch: 2026-06-20T06:56:45.176Z)
Latitude
23.87268°
Longitude
-94.33914°
Altitude
1,554.205 km
Speed
7.123 km/s
True Right ascension
18h 33m 25s
True Declination
23° 45' 30"
Sunlit
Object was in full shadow at epoch
Visualization orbit readout
Latitude
Unknown
Longitude
Unknown
Altitude
Unknown
Speed
Unknown
Apparent Right ascension
Unknown
Apparent Declination
Unknown
Sunlit
N/A
Visualization observer readout
Local Sidereal Time
08:46:34
Azimuth
Unknown
Elevation
Unknown
Doppler factor
Unknown
Orbital elements
Apogee altitude
1,739.125 km
Perigee altitude
1,501.991 km
Semi-major axis
7,998.695 km
Eccentricity
0.01482
Inclination
74.1027°
RAAN
105.561°
Arg. of periapsis
101.1308°
True anomaly
54.01237°
Mean anomaly
52.6469°
Eccentric anomaly
53.32811°
Mean motion
3.03399 °/min
Orbital period
118.66 mins
BSTAR
0.001491
Loading maneuver chart data...
Computing Atmospheric mass density...
Loading historical data...
Loading historical data...
Loading historical data...
Loading historical data...
Loading historical data...
Loading historical data...
Loading historical data...

Documentation

Showing up to 5 results
|